Time,TemperatureF,DewpointF,PressureIn,WindDirection,WindDirectionDegrees,WindSpeedMPH,WindSpeedGustMPH,Humidity,HourlyPrecipIn,Conditions,Clouds,dailyrainin,SoftwareType,DateUTC
2013-06-27 00:01:00,79.9,73.6,-100.00,West,281,0.0,6.0,81,0.00,,,0.00,meteohub,2013-06-27 05:01:00,
2013-06-27 00:06:00,79.5,72.9,-100.00,West,273,0.0,3.0,80,0.00,,,0.00,meteohub,2013-06-27 05:06:00,
2013-06-27 00:11:00,79.5,72.9,-100.00,West,263,0.0,3.0,80,0.00,,,0.00,meteohub,2013-06-27 05:11:00,
2013-06-27 00:16:00,79.3,72.3,-100.00,West,272,0.0,3.0,79,0.00,,,0.00,meteohub,2013-06-27 05:16:00,
2013-06-27 00:21:00,79.3,72.3,-100.00,West,280,0.0,3.0,79,0.00,,,0.00,meteohub,2013-06-27 05:21:00,
2013-06-27 00:26:00,79.2,72.1,-100.00,West,268,0.0,3.0,79,0.00,,,0.00,meteohub,2013-06-27 05:26:00,
2013-06-27 00:31:00,79.2,71.8,-100.00,West,269,0.0,3.0,78,0.00,,,0.00,meteohub,2013-06-27 05:31:00,
2013-06-27 00:36:00,79.2,71.8,-100.00,WNW,286,0.0,2.0,78,0.00,,,0.00,meteohub,2013-06-27 05:36:00,
2013-06-27 00:41:00,79.0,71.1,-100.00,WNW,285,0.0,2.0,77,0.00,,,0.00,meteohub,2013-06-27 05:41:00,
2013-06-27 00:46:00,79.0,71.1,-100.00,WNW,283,0.0,2.0,77,0.00,,,0.00,meteohub,2013-06-27 05:46:00,
2013-06-27 00:51:00,79.0,71.1,-100.00,West,275,0.0,3.0,77,0.00,,,0.00,meteohub,2013-06-27 05:51:00,
2013-06-27 00:56:00,78.6,70.9,-100.00,WNW,283,0.0,3.0,77,0.00,,,0.00,meteohub,2013-06-27 05:56:00,
2013-06-27 01:01:00,78.6,70.9,-100.00,West,277,0.0,3.0,77,0.00,,,0.00,meteohub,2013-06-27 06:01:00,
2013-06-27 01:06:00,78.6,70.9,-100.00,WNW,292,0.0,3.0,77,0.00,,,0.00,meteohub,2013-06-27 06:06:00,
2013-06-27 01:11:00,78.6,70.3,-100.00,West,281,0.0,3.0,76,0.00,,,0.00,meteohub,2013-06-27 06:11:00,
2013-06-27 01:16:00,78.4,70.2,-100.00,WNW,287,0.0,3.0,76,0.00,,,0.00,meteohub,2013-06-27 06:16:00,
2013-06-27 01:21:00,78.3,70.0,-100.00,WNW,292,0.0,1.0,76,0.00,,,0.00,meteohub,2013-06-27 06:21:00,
2013-06-27 01:26:00,78.3,70.0,-100.00,WNW,289,0.0,2.0,76,0.00,,,0.00,meteohub,2013-06-27 06:26:00,
2013-06-27 01:31:00,78.1,70.0,-100.00,WNW,300,0.0,2.0,76,0.00,,,0.00,meteohub,2013-06-27 06:31:00,
2013-06-27 01:32:00,78.1,70.0,-100.00,WNW,300,0.0,2.0,76,0.00,,,0.00,meteohub,2013-06-27 06:32:00,
2013-06-27 01:37:00,77.9,70.2,-100.00,WNW,292,0.0,2.0,77,0.00,,,0.00,meteohub,2013-06-27 06:37:00,
2013-06-27 01:42:00,77.7,70.0,-100.00,West,277,0.0,2.0,77,0.00,,,0.00,meteohub,2013-06-27 06:42:00,
2013-06-27 01:47:00,77.5,69.8,-100.00,West,277,0.0,2.0,77,0.00,,,0.00,meteohub,2013-06-27 06:47:00,
2013-06-27 01:52:00,77.5,69.8,-100.00,WNW,287,0.0,1.0,77,0.00,,,0.00,meteohub,2013-06-27 06:52:00,
2013-06-27 01:57:00,77.4,69.6,-100.00,WNW,287,0.0,1.0,77,0.00,,,0.00,meteohub,2013-06-27 06:57:00,
2013-06-27 02:02:00,77.2,69.8,-100.00,WNW,292,1.0,1.0,78,0.00,,,0.00,meteohub,2013-06-27 07:02:00,
2013-06-27 02:07:00,77.2,69.8,-100.00,WNW,292,0.0,1.0,78,0.00,,,0.00,meteohub,2013-06-27 07:07:00,
2013-06-27 02:12:00,76.8,69.4,-100.00,WNW,292,0.0,1.0,78,0.00,,,0.00,meteohub,2013-06-27 07:12:00,
2013-06-27 02:17:00,76.6,69.3,-100.00,WNW,288,0.0,1.0,78,0.00,,,0.00,meteohub,2013-06-27 07:17:00,
2013-06-27 02:22:00,76.6,69.6,-100.00,WNW,287,0.0,1.0,79,0.00,,,0.00,meteohub,2013-06-27 07:22:00,
2013-06-27 02:27:00,76.5,69.4,-100.00,WNW,286,0.0,1.0,79,0.00,,,0.00,meteohub,2013-06-27 07:27:00,
2013-06-27 02:32:00,76.3,69.3,-100.00,West,280,0.0,1.0,79,0.00,,,0.00,meteohub,2013-06-27 07:32:00,
2013-06-27 02:37:00,75.9,68.9,-100.00,West,277,0.0,5.0,79,0.00,,,0.00,meteohub,2013-06-27 07:37:00,
2013-06-27 02:42:00,75.9,68.9,-100.00,West,276,0.0,5.0,79,0.00,,,0.00,meteohub,2013-06-27 07:42:00,
2013-06-27 02:45:00,75.7,69.1,-100.00,West,276,0.0,5.0,80,0.00,,,0.00,meteohub,2013-06-27 07:45:00,
2013-06-27 02:46:00,75.7,69.1,-100.00,West,277,0.0,5.0,80,0.00,,,0.00,meteohub,2013-06-27 07:46:00,
2013-06-27 02:51:00,75.6,68.9,-100.00,West,277,0.0,1.0,80,0.00,,,0.00,meteohub,2013-06-27 07:51:00,
2013-06-27 02:56:00,75.4,68.7,-100.00,West,276,0.0,1.0,80,0.00,,,0.00,meteohub,2013-06-27 07:56:00,
2013-06-27 03:01:00,75.0,68.4,-100.00,West,275,0.0,1.0,80,0.00,,,0.00,meteohub,2013-06-27 08:01:00,
2013-06-27 03:06:00,75.0,68.4,-100.00,West,271,0.0,1.0,80,0.00,,,0.00,meteohub,2013-06-27 08:06:00,
2013-06-27 03:11:00,74.8,68.2,-100.00,West,269,0.0,1.0,80,0.00,,,0.00,meteohub,2013-06-27 08:11:00,
2013-06-27 03:16:00,74.8,68.5,-100.00,West,269,0.0,1.0,81,0.00,,,0.00,meteohub,2013-06-27 08:16:00,
2013-06-27 03:21:00,74.8,68.5,-100.00,WSW,254,0.0,1.0,81,0.00,,,0.00,meteohub,2013-06-27 08:21:00,
2013-06-27 03:26:00,74.7,68.4,-100.00,WSW,255,0.0,1.0,81,0.00,,,0.00,meteohub,2013-06-27 08:26:00,
2013-06-27 03:31:00,74.7,68.4,-100.00,WSW,255,0.0,1.0,81,0.00,,,0.00,meteohub,2013-06-27 08:31:00,
2013-06-27 03:36:00,74.7,68.4,-100.00,WSW,254,0.0,1.0,81,0.00,,,0.00,meteohub,2013-06-27 08:36:00,
2013-06-27 03:41:00,74.7,68.4,-100.00,WSW,255,1.0,1.0,81,0.00,,,0.00,meteohub,2013-06-27 08:41:00,
2013-06-27 03:46:00,74.5,68.2,-100.00,WSW,254,0.0,2.0,81,0.00,,,0.00,meteohub,2013-06-27 08:46:00,
2013-06-27 03:51:00,74.5,68.2,-100.00,WSW,254,0.0,2.0,81,0.00,,,0.00,meteohub,2013-06-27 08:51:00,
2013-06-27 03:56:00,74.1,68.0,-100.00,WSW,255,0.0,1.0,81,0.00,,,0.00,meteohub,2013-06-27 08:56:00,
2013-06-27 04:01:00,73.9,67.8,-100.00,WSW,255,0.0,1.0,81,0.00,,,0.00,meteohub,2013-06-27 09:01:00,
2013-06-27 04:06:00,73.9,68.2,-100.00,WSW,254,0.0,1.0,82,0.00,,,0.00,meteohub,2013-06-27 09:06:00,
2013-06-27 04:11:00,73.8,68.0,-100.00,WSW,254,0.0,1.0,82,0.00,,,0.00,meteohub,2013-06-27 09:11:00,
2013-06-27 04:16:00,73.6,67.8,-100.00,WSW,254,0.0,1.0,82,0.00,,,0.00,meteohub,2013-06-27 09:16:00,
2013-06-27 04:21:00,73.2,67.5,-100.00,WSW,254,0.0,1.0,82,0.00,,,0.00,meteohub,2013-06-27 09:21:00,
2013-06-27 04:26:00,73.0,67.3,-100.00,WSW,254,0.0,1.0,82,0.00,,,0.00,meteohub,2013-06-27 09:26:00,
2013-06-27 04:31:00,73.0,67.6,-100.00,WSW,254,0.0,1.0,83,0.00,,,0.00,meteohub,2013-06-27 09:31:00,
2013-06-27 04:36:00,72.9,67.5,-100.00,WSW,254,0.0,1.0,83,0.00,,,0.00,meteohub,2013-06-27 09:36:00,
2013-06-27 04:41:00,72.7,67.3,-100.00,WSW,254,0.0,1.0,83,0.00,,,0.00,meteohub,2013-06-27 09:41:00,
2013-06-27 04:46:00,72.5,67.1,-100.00,WSW,254,0.0,1.0,83,0.00,,,0.00,meteohub,2013-06-27 09:46:00,
2013-06-27 04:51:00,72.3,67.3,-100.00,WSW,254,0.0,1.0,84,0.00,,,0.00,meteohub,2013-06-27 09:51:00,
2013-06-27 04:56:00,72.1,67.1,-100.00,WSW,254,0.0,1.0,84,0.00,,,0.00,meteohub,2013-06-27 09:56:00,
2013-06-27 05:01:00,72.1,67.1,-100.00,WSW,254,0.0,1.0,84,0.00,,,0.00,meteohub,2013-06-27 10:01:00,
2013-06-27 05:06:00,72.3,67.3,-100.00,WSW,254,0.0,1.0,84,0.00,,,0.00,meteohub,2013-06-27 10:06:00,
2013-06-27 05:11:00,72.3,67.3,-100.00,WSW,254,0.0,1.0,84,0.00,,,0.00,meteohub,2013-06-27 10:11:00,
2013-06-27 05:16:00,72.1,67.1,-100.00,WSW,254,0.0,0.0,84,0.00,,,0.00,meteohub,2013-06-27 10:16:00,
2013-06-27 05:21:00,72.1,67.1,-100.00,WSW,254,0.0,0.0,84,0.00,,,0.00,meteohub,2013-06-27 10:21:00,
2013-06-27 05:26:00,72.0,66.9,-100.00,WSW,254,0.0,1.0,84,0.00,,,0.00,meteohub,2013-06-27 10:26:00,
2013-06-27 05:31:00,71.8,66.7,-100.00,WSW,254,0.0,1.0,84,0.00,,,0.00,meteohub,2013-06-27 10:31:00,
2013-06-27 05:36:00,71.8,66.7,-100.00,WSW,254,0.0,1.0,84,0.00,,,0.00,meteohub,2013-06-27 10:36:00,
2013-06-27 05:41:00,71.6,66.9,-100.00,WSW,254,0.0,1.0,85,0.00,,,0.00,meteohub,2013-06-27 10:41:00,
2013-06-27 05:46:00,71.6,66.9,-100.00,WSW,254,0.0,1.0,85,0.00,,,0.00,meteohub,2013-06-27 10:46:00,
2013-06-27 05:51:00,71.4,66.7,-100.00,WSW,254,0.0,1.0,85,0.00,,,0.00,meteohub,2013-06-27 10:51:00,
2013-06-27 05:56:00,71.2,66.6,-100.00,WSW,254,0.0,1.0,85,0.00,,,0.00,meteohub,2013-06-27 10:56:00,
2013-06-27 06:01:00,71.2,66.6,-100.00,WSW,254,0.0,1.0,85,0.00,,,0.00,meteohub,2013-06-27 11:01:00,
2013-06-27 06:06:00,71.2,66.6,-100.00,WSW,254,0.0,2.0,85,0.00,,,0.00,meteohub,2013-06-27 11:06:00,
2013-06-27 06:11:00,71.4,66.7,-100.00,WSW,254,0.0,2.0,85,0.00,,,0.00,meteohub,2013-06-27 11:11:00,
2013-06-27 06:16:00,71.8,67.1,-100.00,WSW,254,0.0,1.0,85,0.00,,,0.00,meteohub,2013-06-27 11:16:00,
2013-06-27 06:21:00,72.0,67.3,-100.00,WSW,254,0.0,3.0,85,0.00,,,0.00,meteohub,2013-06-27 11:21:00,
2013-06-27 06:26:00,72.7,67.6,-100.00,WSW,254,0.0,3.0,84,0.00,,,0.00,meteohub,2013-06-27 11:26:00,
2013-06-27 06:31:00,73.2,67.8,-100.00,WSW,254,0.0,3.0,83,0.00,,,0.00,meteohub,2013-06-27 11:31:00,
2013-06-27 06:36:00,73.9,68.2,-100.00,WSW,254,0.0,1.0,82,0.00,,,0.00,meteohub,2013-06-27 11:36:00,
2013-06-27 06:41:00,74.7,68.4,-100.00,WSW,256,0.0,1.0,81,0.00,,,0.00,meteohub,2013-06-27 11:41:00,
2013-06-27 06:46:00,75.4,68.4,-100.00,WSW,255,0.0,4.0,79,0.00,,,0.00,meteohub,2013-06-27 11:46:00,
2013-06-27 06:51:00,76.1,68.7,-100.00,WSW,256,0.0,4.0,78,0.00,,,0.00,meteohub,2013-06-27 11:51:00,
2013-06-27 06:56:00,76.6,68.5,-100.00,West,269,0.0,4.0,76,0.00,,,0.00,meteohub,2013-06-27 11:56:00,
2013-06-27 07:01:00,77.2,68.7,-100.00,West,271,0.0,5.0,75,0.00,,,0.00,meteohub,2013-06-27 12:01:00,
2013-06-27 07:06:00,77.7,68.7,-100.00,West,271,0.0,5.0,74,0.00,,,0.00,meteohub,2013-06-27 12:06:00,
2013-06-27 07:11:00,78.3,68.5,-100.00,West,270,0.0,5.0,72,0.00,,,0.00,meteohub,2013-06-27 12:11:00,
2013-06-27 07:16:00,78.6,68.4,-100.00,WNW,296,0.0,5.0,71,0.00,,,0.00,meteohub,2013-06-27 12:16:00,
2013-06-27 07:21:00,79.0,68.7,-100.00,West,276,0.0,5.0,71,0.00,,,0.00,meteohub,2013-06-27 12:21:00,
2013-06-27 07:26:00,79.2,68.9,-100.00,WSW,256,0.0,7.0,71,0.00,,,0.00,meteohub,2013-06-27 12:26:00,
2013-06-27 07:31:00,79.5,68.9,-100.00,WNW,295,1.0,9.0,70,0.00,,,0.00,meteohub,2013-06-27 12:31:00,
2013-06-27 07:36:00,79.7,69.1,-100.00,WNW,285,0.0,9.0,70,0.00,,,0.00,meteohub,2013-06-27 12:36:00,
2013-06-27 07:41:00,80.2,69.1,-100.00,West,279,0.0,9.0,69,0.00,,,0.00,meteohub,2013-06-27 12:41:00,
2013-06-27 07:46:00,80.4,68.9,-100.00,West,279,0.0,5.0,68,0.00,,,0.00,meteohub,2013-06-27 12:46:00,
2013-06-27 07:51:00,81.1,69.1,-100.00,WNW,294,0.0,5.0,67,0.00,,,0.00,meteohub,2013-06-27 12:51:00,
2013-06-27 07:56:00,81.3,69.8,-100.00,WNW,287,0.0,6.0,68,0.00,,,0.00,meteohub,2013-06-27 12:56:00,
2013-06-27 08:01:00,81.9,69.8,-100.00,West,277,0.0,6.0,67,0.00,,,0.00,meteohub,2013-06-27 13:01:00,
2013-06-27 08:06:00,82.2,69.3,-100.00,WNW,295,4.0,7.0,65,0.00,,,0.00,meteohub,2013-06-27 13:06:00,
2013-06-27 08:11:00,82.6,69.1,-100.00,WNW,287,3.0,7.0,64,0.00,,,0.00,meteohub,2013-06-27 13:11:00,
2013-06-27 08:16:00,82.8,69.3,-100.00,WNW,294,3.0,7.0,64,0.00,,,0.00,meteohub,2013-06-27 13:16:00,
2013-06-27 08:21:00,82.9,69.4,-100.00,WNW,303,2.0,7.0,64,0.00,,,0.00,meteohub,2013-06-27 13:21:00,
2013-06-27 08:26:00,83.1,69.6,-100.00,NW,309,1.0,7.0,64,0.00,,,0.00,meteohub,2013-06-27 13:26:00,
2013-06-27 08:31:00,83.5,70.5,-100.00,WNW,302,5.0,6.0,65,0.00,,,0.00,meteohub,2013-06-27 13:31:00,
2013-06-27 08:36:00,83.8,70.0,-100.00,NW,304,3.0,6.0,63,0.00,,,0.00,meteohub,2013-06-27 13:36:00,
2013-06-27 08:41:00,83.8,70.0,-100.00,NW,304,3.0,6.0,63,0.00,,,0.00,meteohub,2013-06-27 13:41:00,
2013-06-27 08:46:00,83.8,70.0,-100.00,NW,308,5.0,9.0,63,0.00,,,0.00,meteohub,2013-06-27 13:46:00,
2013-06-27 08:51:00,83.7,70.7,-100.00,NW,310,0.0,9.0,65,0.00,,,0.00,meteohub,2013-06-27 13:51:00,
2013-06-27 08:56:00,83.8,70.9,-100.00,WNW,300,2.0,9.0,65,0.00,,,0.00,meteohub,2013-06-27 13:56:00,
2013-06-27 09:01:00,84.4,70.9,-100.00,NW,306,0.0,5.0,64,0.00,,,0.00,meteohub,2013-06-27 14:01:00,
2013-06-27 09:06:00,84.6,69.6,-100.00,NW,304,0.0,5.0,61,0.00,,,0.00,meteohub,2013-06-27 14:06:00,
2013-06-27 09:11:00,84.7,70.3,-100.00,NW,317,0.0,7.0,62,0.00,,,0.00,meteohub,2013-06-27 14:11:00,
2013-06-27 09:16:00,84.6,71.1,-100.00,NW,311,0.0,7.0,64,0.00,,,0.00,meteohub,2013-06-27 14:16:00,
2013-06-27 09:21:00,85.5,70.9,-100.00,NW,307,0.0,7.0,62,0.00,,,0.00,meteohub,2013-06-27 14:21:00,
2013-06-27 09:26:00,86.5,71.1,-100.00,NW,321,0.0,4.0,60,0.00,,,0.00,meteohub,2013-06-27 14:26:00,
2013-06-27 09:31:00,86.7,71.2,-100.00,NW,321,0.0,6.0,60,0.00,,,0.00,meteohub,2013-06-27 14:31:00,
2013-06-27 09:36:00,87.6,71.1,-100.00,NW,315,0.0,6.0,58,0.00,,,0.00,meteohub,2013-06-27 14:36:00,
2013-06-27 09:41:00,88.2,71.6,-100.00,West,275,1.0,7.0,58,0.00,,,0.00,meteohub,2013-06-27 14:41:00,
2013-06-27 09:46:00,89.4,71.1,-100.00,NW,321,5.0,7.0,55,0.00,,,0.00,meteohub,2013-06-27 14:46:00,
2013-06-27 09:51:00,90.3,70.9,-100.00,WSW,248,0.0,8.0,53,0.00,,,0.00,meteohub,2013-06-27 14:51:00,
2013-06-27 09:56:00,90.5,71.6,-100.00,WNW,296,0.0,8.0,54,0.00,,,0.00,meteohub,2013-06-27 14:56:00,
2013-06-27 10:01:00,90.3,70.9,-100.00,WNW,292,0.0,10.0,53,0.00,,,0.00,meteohub,2013-06-27 15:01:00,
2013-06-27 10:06:00,90.9,72.0,-100.00,WNW,288,3.0,10.0,54,0.00,,,0.00,meteohub,2013-06-27 15:06:00,
2013-06-27 10:11:00,91.9,71.8,-100.00,WNW,286,0.0,10.0,52,0.00,,,0.00,meteohub,2013-06-27 15:11:00,
2013-06-27 10:17:00,92.7,71.2,-100.00,WNW,295,0.0,13.0,50,0.00,,,0.00,meteohub,2013-06-27 15:17:00,
2013-06-27 10:22:00,92.7,71.2,-100.00,NW,315,0.0,13.0,50,0.00,,,0.00,meteohub,2013-06-27 15:22:00,
2013-06-27 10:27:00,93.0,72.1,-100.00,West,280,5.0,13.0,51,0.00,,,0.00,meteohub,2013-06-27 15:27:00,
2013-06-27 10:32:00,93.4,71.4,-100.00,West,279,0.0,9.0,49,0.00,,,0.00,meteohub,2013-06-27 15:32:00,
2013-06-27 10:37:00,93.7,71.1,-100.00,NW,304,5.0,9.0,48,0.00,,,0.00,meteohub,2013-06-27 15:37:00,
2013-06-27 10:42:00,93.2,71.2,-100.00,West,268,4.0,14.0,49,0.00,,,0.00,meteohub,2013-06-27 15:42:00,
2013-06-27 10:47:00,92.8,70.3,-100.00,WNW,291,0.0,14.0,48,0.00,,,0.00,meteohub,2013-06-27 15:47:00,
2013-06-27 10:52:00,92.8,70.3,-100.00,WNW,301,0.0,14.0,48,0.00,,,0.00,meteohub,2013-06-27 15:52:00,
2013-06-27 10:57:00,93.4,71.4,-100.00,West,270,4.0,11.0,49,0.00,,,0.00,meteohub,2013-06-27 15:57:00,
2013-06-27 11:02:00,94.1,71.4,-100.00,WNW,299,0.0,13.0,48,0.00,,,0.00,meteohub,2013-06-27 16:02:00,
2013-06-27 11:07:00,94.6,71.2,-100.00,WNW,283,1.0,13.0,47,0.00,,,0.00,meteohub,2013-06-27 16:07:00,
2013-06-27 11:12:00,95.5,70.9,-100.00,West,273,6.0,13.0,45,0.00,,,0.00,meteohub,2013-06-27 16:12:00,
2013-06-27 11:17:00,95.7,70.3,-100.00,West,279,0.0,11.0,44,0.00,,,0.00,meteohub,2013-06-27 16:17:00,
2013-06-27 11:22:00,95.9,71.1,-100.00,West,277,3.0,11.0,45,0.00,,,0.00,meteohub,2013-06-27 16:22:00,
2013-06-27 11:27:00,96.4,70.9,-100.00,WNW,288,0.0,11.0,44,0.00,,,0.00,meteohub,2013-06-27 16:27:00,
2013-06-27 11:32:00,97.2,70.9,-100.00,WSW,250,0.0,9.0,43,0.00,,,0.00,meteohub,2013-06-27 16:32:00,
2013-06-27 11:37:00,97.5,71.2,-100.00,WNW,283,9.0,9.0,43,0.00,,,0.00,meteohub,2013-06-27 16:37:00,
2013-06-27 11:42:00,97.7,70.7,-100.00,NW,316,6.0,11.0,42,0.00,,,0.00,meteohub,2013-06-27 16:42:00,
2013-06-27 11:47:00,97.7,70.0,-100.00,West,269,5.0,11.0,41,0.00,,,0.00,meteohub,2013-06-27 16:47:00,
2013-06-27 11:52:00,97.7,70.0,-100.00,WNW,300,0.0,12.0,41,0.00,,,0.00,meteohub,2013-06-27 16:52:00,
2013-06-27 11:57:00,98.1,71.1,-100.00,West,274,5.0,12.0,42,0.00,,,0.00,meteohub,2013-06-27 16:57:00,
2013-06-27 12:02:00,98.4,71.4,-100.00,WNW,284,1.0,12.0,42,0.00,,,0.00,meteohub,2013-06-27 17:02:00,
2013-06-27 12:07:00,98.4,71.4,-100.00,WNW,286,6.0,11.0,42,0.00,,,0.00,meteohub,2013-06-27 17:07:00,
2013-06-27 12:12:00,98.8,68.7,-100.00,WNW,284,7.0,13.0,38,0.00,,,0.00,meteohub,2013-06-27 17:12:00,
2013-06-27 12:17:00,97.9,68.0,-100.00,WSW,257,5.0,13.0,38,0.00,,,0.00,meteohub,2013-06-27 17:17:00,
2013-06-27 12:22:00,97.7,70.0,-100.00,West,272,3.0,13.0,41,0.00,,,0.00,meteohub,2013-06-27 17:22:00,
2013-06-27 12:27:00,97.5,69.8,-100.00,WNW,285,2.0,12.0,41,0.00,,,0.00,meteohub,2013-06-27 17:27:00,
2013-06-27 12:32:00,98.1,69.6,-100.00,West,271,4.0,12.0,40,0.00,,,0.00,meteohub,2013-06-27 17:32:00,
2013-06-27 12:37:00,98.1,69.6,-100.00,West,263,4.0,10.0,40,0.00,,,0.00,meteohub,2013-06-27 17:37:00,
2013-06-27 12:42:00,97.2,68.0,-100.00,West,260,5.0,10.0,39,0.00,,,0.00,meteohub,2013-06-27 17:42:00,
2013-06-27 12:47:00,96.3,68.0,-100.00,West,281,4.0,13.0,40,0.00,,,0.00,meteohub,2013-06-27 17:47:00,
2013-06-27 12:52:00,95.4,68.0,-100.00,West,263,2.0,13.0,41,0.00,,,0.00,meteohub,2013-06-27 17:52:00,
2013-06-27 12:57:00,94.5,68.5,-100.00,WSW,249,8.0,13.0,43,0.00,,,0.00,meteohub,2013-06-27 17:57:00,
2013-06-27 13:02:00,93.4,68.9,-100.00,WNW,292,7.0,13.0,45,0.00,,,0.00,meteohub,2013-06-27 18:02:00,
2013-06-27 13:07:00,92.5,68.7,-100.00,West,263,5.0,12.0,46,0.00,,,0.00,meteohub,2013-06-27 18:07:00,
2013-06-27 13:12:00,91.9,68.9,-100.00,WNW,287,3.0,11.0,47,0.00,,,0.00,meteohub,2013-06-27 18:12:00,
2013-06-27 13:17:00,91.8,69.3,-100.00,West,265,4.0,13.0,48,0.00,,,0.00,meteohub,2013-06-27 18:17:00,
2013-06-27 13:22:00,91.8,69.3,-100.00,West,270,2.0,13.0,48,0.00,,,0.00,meteohub,2013-06-27 18:22:00,
2013-06-27 13:27:00,91.8,68.7,-100.00,West,281,3.0,13.0,47,0.00,,,0.00,meteohub,2013-06-27 18:27:00,
2013-06-27 13:32:00,91.9,69.4,-100.00,West,273,0.0,12.0,48,0.00,,,0.00,meteohub,2013-06-27 18:32:00,
2013-06-27 13:37:00,92.1,69.6,-100.00,WNW,288,4.0,12.0,48,0.00,,,0.00,meteohub,2013-06-27 18:37:00,
2013-06-27 13:42:00,91.9,69.4,-100.00,WNW,286,2.0,12.0,48,0.00,,,0.00,meteohub,2013-06-27 18:42:00,
2013-06-27 13:47:00,91.6,69.8,-100.00,WSW,254,4.0,11.0,49,0.00,,,0.00,meteohub,2013-06-27 18:47:00,
2013-06-27 13:52:00,91.0,69.8,-100.00,West,262,1.0,10.0,50,0.00,,,0.00,meteohub,2013-06-27 18:52:00,
2013-06-27 13:57:00,90.9,70.2,-100.00,WSW,246,3.0,10.0,51,0.00,,,0.00,meteohub,2013-06-27 18:57:00,
2013-06-27 14:02:00,90.3,69.8,-100.00,WNW,302,3.0,11.0,51,0.00,,,0.00,meteohub,2013-06-27 19:02:00,
2013-06-27 14:07:00,90.1,70.2,-100.00,WNW,293,3.0,13.0,52,0.00,,,0.00,meteohub,2013-06-27 19:07:00,
2013-06-27 14:12:00,90.0,70.0,-100.00,West,267,3.0,13.0,52,0.00,,,0.00,meteohub,2013-06-27 19:12:00,
2013-06-27 14:17:00,89.8,69.8,-100.00,WNW,302,11.0,13.0,52,0.00,,,0.00,meteohub,2013-06-27 19:17:00,
2013-06-27 14:22:00,89.6,70.7,-100.00,West,277,10.0,15.0,54,0.00,,,0.00,meteohub,2013-06-27 19:22:00,
2013-06-27 14:27:00,89.4,70.5,-100.00,West,281,6.0,15.0,54,0.00,,,0.00,meteohub,2013-06-27 19:27:00,
2013-06-27 14:32:00,90.0,71.1,-100.00,West,279,7.0,15.0,54,0.00,,,0.00,meteohub,2013-06-27 19:32:00,
2013-06-27 14:37:00,90.3,70.9,-100.00,WNW,284,10.0,12.0,53,0.00,,,0.00,meteohub,2013-06-27 19:37:00,
2013-06-27 14:42:00,90.7,71.2,-100.00,WNW,292,5.0,15.0,53,0.00,,,0.00,meteohub,2013-06-27 19:42:00,
2013-06-27 14:47:00,90.7,70.7,-100.00,West,274,7.0,16.0,52,0.00,,,0.00,meteohub,2013-06-27 19:47:00,
2013-06-27 14:52:00,90.3,70.3,-100.00,West,272,3.0,16.0,52,0.00,,,0.00,meteohub,2013-06-27 19:52:00,
2013-06-27 14:57:00,90.0,69.4,-100.00,West,261,3.0,22.0,51,0.00,,,0.00,meteohub,2013-06-27 19:57:00,
2013-06-27 15:02:00,89.4,69.4,-100.00,NW,307,2.0,22.0,52,0.00,,,0.00,meteohub,2013-06-27 20:02:00,
2013-06-27 15:07:00,88.9,69.6,-100.00,West,274,5.0,21.0,53,0.00,,,0.00,meteohub,2013-06-27 20:07:00,
2013-06-27 15:12:00,88.5,69.8,-100.00,West,265,6.0,21.0,54,0.00,,,0.00,meteohub,2013-06-27 20:12:00,
2013-06-27 15:17:00,88.3,70.2,-100.00,WNW,288,9.0,21.0,55,0.00,,,0.00,meteohub,2013-06-27 20:17:00,
2013-06-27 15:22:00,88.3,70.7,-100.00,WNW,294,4.0,18.0,56,0.00,,,0.00,meteohub,2013-06-27 20:22:00,
2013-06-27 15:27:00,88.5,70.9,-100.00,WNW,283,3.0,16.0,56,0.00,,,0.00,meteohub,2013-06-27 20:27:00,
2013-06-27 15:32:00,88.5,70.3,-100.00,WNW,290,5.0,16.0,55,0.00,,,0.00,meteohub,2013-06-27 20:32:00,
2013-06-27 15:37:00,88.7,70.5,-100.00,West,268,4.0,16.0,55,0.00,,,0.00,meteohub,2013-06-27 20:37:00,
2013-06-27 15:42:00,88.7,70.5,-100.00,West,276,4.0,17.0,55,0.00,,,0.00,meteohub,2013-06-27 20:42:00,
2013-06-27 15:47:00,88.7,70.0,-100.00,WNW,300,0.0,17.0,54,0.00,,,0.00,meteohub,2013-06-27 20:47:00,
2013-06-27 15:52:00,88.7,70.0,-100.00,WSW,244,0.0,17.0,54,0.00,,,0.00,meteohub,2013-06-27 20:52:00,
2013-06-27 15:57:00,88.5,69.8,-100.00,West,272,1.0,14.0,54,0.00,,,0.00,meteohub,2013-06-27 20:57:00,
2013-06-27 16:02:00,88.5,69.3,-100.00,West,269,0.0,14.0,53,0.00,,,0.00,meteohub,2013-06-27 21:02:00,
2013-06-27 16:07:00,88.9,69.6,-100.00,WNW,299,0.0,14.0,53,0.00,,,0.00,meteohub,2013-06-27 21:07:00,
2013-06-27 16:12:00,88.9,68.9,-100.00,WNW,283,0.0,7.0,52,0.00,,,0.00,meteohub,2013-06-27 21:12:00,
2013-06-27 16:17:00,88.9,69.6,-100.00,West,279,0.0,7.0,53,0.00,,,0.00,meteohub,2013-06-27 21:17:00,
2013-06-27 16:22:00,88.5,69.3,-100.00,WNW,286,0.0,11.0,53,0.00,,,0.00,meteohub,2013-06-27 21:22:00,
2013-06-27 16:27:00,88.3,69.6,-100.00,West,275,0.0,11.0,54,0.00,,,0.00,meteohub,2013-06-27 21:27:00,
2013-06-27 16:32:00,88.2,69.4,-100.00,WNW,286,7.0,11.0,54,0.00,,,0.00,meteohub,2013-06-27 21:32:00,
2013-06-27 16:37:00,88.2,69.4,-100.00,West,269,4.0,11.0,54,0.00,,,0.00,meteohub,2013-06-27 21:37:00,
2013-06-27 16:42:00,88.3,69.6,-100.00,West,267,0.0,11.0,54,0.00,,,0.00,meteohub,2013-06-27 21:42:00,
2013-06-27 16:47:00,88.3,69.1,-100.00,West,279,5.0,9.0,53,0.00,,,0.00,meteohub,2013-06-27 21:47:00,
2013-06-27 16:52:00,88.3,69.6,-100.00,West,269,0.0,12.0,54,0.00,,,0.00,meteohub,2013-06-27 21:52:00,
2013-06-27 16:57:00,88.3,69.1,-100.00,West,268,0.0,12.0,53,0.00,,,0.00,meteohub,2013-06-27 21:57:00,
2013-06-27 17:02:00,88.2,70.0,-100.00,WNW,285,0.0,13.0,55,0.00,,,0.00,meteohub,2013-06-27 22:02:00,
2013-06-27 17:07:00,87.6,69.4,-100.00,WNW,291,5.0,13.0,55,0.00,,,0.00,meteohub,2013-06-27 22:07:00,
2013-06-27 17:12:00,87.4,69.3,-100.00,WNW,300,2.0,13.0,55,0.00,,,0.00,meteohub,2013-06-27 22:12:00,
2013-06-27 17:17:00,87.3,69.6,-100.00,West,279,0.0,7.0,56,0.00,,,0.00,meteohub,2013-06-27 22:17:00,
2013-06-27 17:22:00,87.3,70.2,-100.00,WNW,297,2.0,7.0,57,0.00,,,0.00,meteohub,2013-06-27 22:22:00,
2013-06-27 17:27:00,87.3,70.2,-100.00,WNW,294,0.0,11.0,57,0.00,,,0.00,meteohub,2013-06-27 22:27:00,
2013-06-27 17:32:00,87.4,70.3,-100.00,WNW,283,10.0,11.0,57,0.00,,,0.00,meteohub,2013-06-27 22:32:00,
2013-06-27 17:37:00,88.0,69.8,-100.00,NW,306,0.0,11.0,55,0.00,,,0.00,meteohub,2013-06-27 22:37:00,
2013-06-27 17:42:00,88.5,70.3,-100.00,WSW,245,0.0,10.0,55,0.00,,,0.00,meteohub,2013-06-27 22:42:00,
2013-06-27 17:47:00,89.2,70.9,-100.00,WNW,288,5.0,10.0,55,0.00,,,0.00,meteohub,2013-06-27 22:47:00,
2013-06-27 17:52:00,89.4,71.1,-100.00,WNW,289,7.0,7.0,55,0.00,,,0.00,meteohub,2013-06-27 22:52:00,
2013-06-27 17:57:00,90.0,70.5,-100.00,West,277,8.0,11.0,53,0.00,,,0.00,meteohub,2013-06-27 22:57:00,
2013-06-27 18:02:00,89.8,70.9,-100.00,West,281,8.0,11.0,54,0.00,,,0.00,meteohub,2013-06-27 23:02:00,
2013-06-27 18:07:00,89.2,70.3,-100.00,West,275,0.0,11.0,54,0.00,,,0.00,meteohub,2013-06-27 23:07:00,
2013-06-27 18:12:00,89.1,70.7,-100.00,NW,309,2.0,11.0,55,0.00,,,0.00,meteohub,2013-06-27 23:12:00,
2013-06-27 18:17:00,88.3,70.7,-100.00,West,268,0.0,11.0,56,0.00,,,0.00,meteohub,2013-06-27 23:17:00,
2013-06-27 18:22:00,88.2,70.5,-100.00,WNW,283,6.0,11.0,56,0.00,,,0.00,meteohub,2013-06-27 23:22:00,
2013-06-27 18:27:00,88.3,70.7,-100.00,NW,306,0.0,10.0,56,0.00,,,0.00,meteohub,2013-06-27 23:27:00,
2013-06-27 18:32:00,88.0,70.9,-100.00,WNW,296,3.0,10.0,57,0.00,,,0.00,meteohub,2013-06-27 23:32:00,
2013-06-27 18:37:00,87.6,71.1,-100.00,WNW,290,0.0,10.0,58,0.00,,,0.00,meteohub,2013-06-27 23:37:00,
2013-06-27 18:42:00,87.4,70.9,-100.00,NW,310,3.0,10.0,58,0.00,,,0.00,meteohub,2013-06-27 23:42:00,
2013-06-27 18:47:00,87.3,70.7,-100.00,NW,320,5.0,9.0,58,0.00,,,0.00,meteohub,2013-06-27 23:47:00,
2013-06-27 18:52:00,87.3,71.2,-100.00,NW,309,0.0,9.0,59,0.00,,,0.00,meteohub,2013-06-27 23:52:00,
2013-06-27 18:57:00,87.1,70.5,-100.00,WNW,303,0.0,9.0,58,0.00,,,0.00,meteohub,2013-06-27 23:57:00,
2013-06-27 19:02:00,87.1,71.1,-100.00,West,275,0.0,9.0,59,0.00,,,0.00,meteohub,2013-06-28 00:02:00,
2013-06-27 19:07:00,87.1,71.4,-100.00,NW,318,0.0,6.0,60,0.00,,,0.00,meteohub,2013-06-28 00:07:00,
2013-06-27 19:12:00,86.7,71.2,-100.00,NW,311,4.0,6.0,60,0.00,,,0.00,meteohub,2013-06-28 00:12:00,
2013-06-27 19:17:00,86.5,71.1,-100.00,NW,309,0.0,10.0,60,0.00,,,0.00,meteohub,2013-06-28 00:17:00,
2013-06-27 19:22:00,86.4,70.9,-100.00,WNW,290,0.0,10.0,60,0.00,,,0.00,meteohub,2013-06-28 00:22:00,
2013-06-27 19:27:00,86.2,71.1,-100.00,West,277,2.0,10.0,61,0.00,,,0.00,meteohub,2013-06-28 00:27:00,
2013-06-27 19:32:00,86.2,71.1,-100.00,WNW,296,0.0,9.0,61,0.00,,,0.00,meteohub,2013-06-28 00:32:00,
2013-06-27 19:37:00,85.8,71.2,-100.00,WNW,292,0.0,9.0,62,0.00,,,0.00,meteohub,2013-06-28 00:37:00,
2013-06-27 19:42:00,85.6,71.1,-100.00,WNW,300,0.0,8.0,62,0.00,,,0.00,meteohub,2013-06-28 00:42:00,
2013-06-27 19:47:00,85.5,70.9,-100.00,WNW,286,0.0,8.0,62,0.00,,,0.00,meteohub,2013-06-28 00:47:00,
2013-06-27 19:52:00,85.1,71.1,-100.00,WNW,286,0.0,6.0,63,0.00,,,0.00,meteohub,2013-06-28 00:52:00,
2013-06-27 19:57:00,84.7,71.2,-100.00,West,267,0.0,6.0,64,0.00,,,0.00,meteohub,2013-06-28 00:57:00,
2013-06-27 20:02:00,84.6,71.1,-100.00,West,279,0.0,6.0,64,0.00,,,0.00,meteohub,2013-06-28 01:02:00,
2013-06-27 20:07:00,84.2,71.2,-100.00,West,280,0.0,6.0,65,0.00,,,0.00,meteohub,2013-06-28 01:07:00,
2013-06-27 20:12:00,83.8,70.9,-100.00,West,280,0.0,5.0,65,0.00,,,0.00,meteohub,2013-06-28 01:12:00,
2013-06-27 20:17:00,83.7,71.1,-100.00,WNW,283,0.0,2.0,66,0.00,,,0.00,meteohub,2013-06-28 01:17:00,
2013-06-27 20:22:00,83.3,70.7,-100.00,WNW,286,0.0,2.0,66,0.00,,,0.00,meteohub,2013-06-28 01:22:00,
2013-06-27 20:27:00,83.1,71.1,-100.00,West,279,0.0,2.0,67,0.00,,,0.00,meteohub,2013-06-28 01:27:00,
2013-06-27 20:32:00,82.8,71.1,-100.00,West,280,0.0,1.0,68,0.00,,,0.00,meteohub,2013-06-28 01:32:00,
2013-06-27 20:37:00,82.6,70.9,-100.00,West,281,0.0,1.0,68,0.00,,,0.00,meteohub,2013-06-28 01:37:00,
2013-06-27 20:43:00,82.2,71.1,-100.00,West,281,0.0,1.0,69,0.00,,,0.00,meteohub,2013-06-28 01:43:00,
2013-06-27 20:48:00,81.9,70.7,-100.00,WNW,286,0.0,1.0,69,0.00,,,0.00,meteohub,2013-06-28 01:48:00,
2013-06-27 20:53:00,81.7,70.9,-100.00,WNW,286,0.0,1.0,70,0.00,,,0.00,meteohub,2013-06-28 01:53:00,
2013-06-27 20:58:00,81.3,70.5,-100.00,WNW,286,0.0,1.0,70,0.00,,,0.00,meteohub,2013-06-28 01:58:00,
2013-06-27 21:03:00,81.1,70.3,-100.00,WNW,286,0.0,1.0,70,0.00,,,0.00,meteohub,2013-06-28 02:03:00,
2013-06-27 21:08:00,81.0,70.7,-100.00,WNW,286,0.0,1.0,71,0.00,,,0.00,meteohub,2013-06-28 02:08:00,
2013-06-27 21:13:00,80.8,70.5,-100.00,WNW,289,0.0,1.0,71,0.00,,,0.00,meteohub,2013-06-28 02:13:00,
2013-06-27 21:18:00,80.4,70.5,-100.00,WNW,288,0.0,1.0,72,0.00,,,0.00,meteohub,2013-06-28 02:18:00,
2013-06-27 21:23:00,80.2,70.3,-100.00,WNW,289,0.0,1.0,72,0.00,,,0.00,meteohub,2013-06-28 02:23:00,
2013-06-27 21:28:00,79.9,70.5,-100.00,WNW,288,0.0,1.0,73,0.00,,,0.00,meteohub,2013-06-28 02:28:00,
2013-06-27 21:33:00,79.7,70.3,-100.00,WNW,288,0.0,1.0,73,0.00,,,0.00,meteohub,2013-06-28 02:33:00,
2013-06-27 21:38:00,79.5,70.5,-100.00,WNW,288,0.0,1.0,74,0.00,,,0.00,meteohub,2013-06-28 02:38:00,
2013-06-27 21:43:00,79.3,70.3,-100.00,WNW,289,0.0,1.0,74,0.00,,,0.00,meteohub,2013-06-28 02:43:00,
2013-06-27 21:48:00,79.3,70.3,-100.00,WNW,288,0.0,1.0,74,0.00,,,0.00,meteohub,2013-06-28 02:48:00,
2013-06-27 21:53:00,79.2,70.2,-100.00,WNW,288,0.0,1.0,74,0.00,,,0.00,meteohub,2013-06-28 02:53:00,
2013-06-27 21:58:00,79.0,70.0,-100.00,WNW,288,0.0,1.0,74,0.00,,,0.00,meteohub,2013-06-28 02:58:00,
2013-06-27 22:03:00,78.8,69.8,-100.00,WNW,288,0.0,1.0,74,0.00,,,0.00,meteohub,2013-06-28 03:03:00,
2013-06-27 22:08:00,78.6,70.0,-100.00,WNW,288,0.0,1.0,75,0.00,,,0.00,meteohub,2013-06-28 03:08:00,
2013-06-27 22:13:00,78.4,69.8,-100.00,WNW,288,0.0,1.0,75,0.00,,,0.00,meteohub,2013-06-28 03:13:00,
2013-06-27 22:18:00,78.3,69.6,-100.00,WNW,288,0.0,1.0,75,0.00,,,0.00,meteohub,2013-06-28 03:18:00,
2013-06-27 22:23:00,78.3,69.6,-100.00,WNW,286,0.0,1.0,75,0.00,,,0.00,meteohub,2013-06-28 03:23:00,
2013-06-27 22:28:00,78.3,69.6,-100.00,WNW,286,0.0,1.0,75,0.00,,,0.00,meteohub,2013-06-28 03:28:00,
2013-06-27 22:33:00,78.3,69.3,-100.00,WNW,286,0.0,1.0,74,0.00,,,0.00,meteohub,2013-06-28 03:33:00,
2013-06-27 22:38:00,78.3,69.3,-100.00,West,269,0.0,1.0,74,0.00,,,0.00,meteohub,2013-06-28 03:38:00,
2013-06-27 22:43:00,78.1,69.1,-100.00,West,281,0.0,1.0,74,0.00,,,0.00,meteohub,2013-06-28 03:43:00,
2013-06-27 22:48:00,78.3,68.9,-100.00,West,266,0.0,1.0,73,0.00,,,0.00,meteohub,2013-06-28 03:48:00,
2013-06-27 22:54:00,78.3,68.9,-100.00,West,267,0.0,5.0,73,0.00,,,0.00,meteohub,2013-06-28 03:54:00,
2013-06-27 22:59:00,78.3,68.9,-100.00,West,278,5.0,5.0,73,0.00,,,0.00,meteohub,2013-06-28 03:59:00,
2013-06-27 23:01:00,78.3,68.9,-100.00,West,268,0.0,5.0,73,0.00,,,0.00,meteohub,2013-06-28 04:01:00,
2013-06-27 23:07:00,78.1,68.7,-100.00,West,268,0.0,5.0,73,0.00,,,0.00,meteohub,2013-06-28 04:07:00,
2013-06-27 23:12:00,77.9,68.9,-100.00,West,267,0.0,5.0,74,0.00,,,0.00,meteohub,2013-06-28 04:12:00,
2013-06-27 23:21:00,77.5,68.9,-100.00,West,268,0.0,1.0,75,0.00,,,0.00,meteohub,2013-06-28 04:21:00,
2013-06-27 23:26:00,77.5,68.9,-100.00,West,266,0.0,1.0,75,0.00,,,0.00,meteohub,2013-06-28 04:26:00,
2013-06-27 23:31:00,77.5,68.9,-100.00,West,270,0.0,1.0,75,0.00,,,0.00,meteohub,2013-06-28 04:31:00,
2013-06-27 23:36:00,77.5,68.9,-100.00,West,269,0.0,1.0,75,0.00,,,0.00,meteohub,2013-06-28 04:36:00,
2013-06-27 23:41:00,77.4,68.9,-100.00,West,269,0.0,1.0,75,0.00,,,0.00,meteohub,2013-06-28 04:41:00,
2013-06-27 23:46:00,77.2,68.7,-100.00,West,269,0.0,1.0,75,0.00,,,0.00,meteohub,2013-06-28 04:46:00,
2013-06-27 23:51:00,77.0,68.5,-100.00,West,268,0.0,1.0,75,0.00,,,0.00,meteohub,2013-06-28 04:51:00,
2013-06-27 23:56:00,76.8,68.4,-100.00,West,269,0.0,1.0,75,0.00,,,0.00,meteohub,2013-06-28 04:56:00,